PUUANAHULU HI US current weather conditions

sailwx.info

Wind from 343 at 1 knots gusting 12

Air temperature 19.4° C
Dewpoint 16.3° C

Last reported at 2016-Jul-23 12:37 UTC.
Time now 2016-Jul-23 13:13 UTC

Location: N 19°50' W 155°46'.
View on Google Maps.

See reports from other nearby stations

  
Tides and Currents Weather Stations Pressure Air Temp Water Temp Dewpoint Dewpoint Depression Visibility Wind Speed Wind Dir Waves Ship Positions
date/time (UTC)wind fromknots sea level pressurealtimeterstation pressurevisibilityair tempwater tempwave heightnotes
2016-Jul-23 12:37 343 1 gusting 12 19.4
2016-Jul-23 11:37 114 5 gusting 11 18.3
2016-Jul-23 10:37 267 7 gusting 13 20.6
2016-Jul-23 09:37 096 4 gusting 10 18.9
2016-Jul-23 08:37 099 6 gusting 19 18.9
2016-Jul-23 07:37 084 6 gusting 21 20.0
2016-Jul-23 06:37 015 12 gusting 20 21.7
2016-Jul-23 05:37 014 8 gusting 26 21.7
2016-Jul-23 04:37 355 13 gusting 25 22.2
2016-Jul-23 03:37 008 14 gusting 29 24.4
2016-Jul-23 02:37 010 17 gusting 31 25.0
2016-Jul-23 01:37 011 19 gusting 33 25.0
2016-Jul-23 00:37 010 23 gusting 31 25.6
2016-Jul-22 23:37 006 20 gusting 33 25.0
2016-Jul-22 22:37 008 17 gusting 28 26.7
2016-Jul-22 21:37 014 16 gusting 27 27.8
2016-Jul-22 20:37 026 10 gusting 21 28.3
2016-Jul-22 19:37 229 5 gusting 11 25.6
2016-Jul-22 18:37 213 4 gusting 8 23.9
2016-Jul-22 17:37 200 5 gusting 10 21.7
2016-Jul-22 16:37 142 4 gusting 9 17.8
2016-Jul-22 15:37 144 5 gusting 13 17.2
2016-Jul-22 14:37 139 5 gusting 9 16.1
2016-Jul-22 13:37 154 3 gusting 9 16.1
2016-Jul-22 12:37 173 6 gusting 9 17.2
2016-Jul-22 11:37 137 5 gusting 11 17.2
2016-Jul-22 10:37 132 6 gusting 7 16.7
2016-Jul-22 09:37 148 5 gusting 7 17.8
2016-Jul-22 08:37 177 5 gusting 6 17.8
2016-Jul-22 07:37 130 2 gusting 5 18.3
2016-Jul-22 06:37 289 1 gusting 8 19.4
2016-Jul-22 05:37 178 6 gusting 17 20.6
2016-Jul-22 04:37 357 12 gusting 27 23.3
2016-Jul-22 03:37 347 16 gusting 27 22.8
2016-Jul-22 02:37 354 18 gusting 28 24.4
2016-Jul-22 01:37 332 17 gusting 28 26.1
2016-Jul-22 00:37 002 15 gusting 26 27.8
2016-Jul-21 23:37 007 10 gusting 25 28.3
2016-Jul-21 22:37 024 14 gusting 26 28.3
2016-Jul-21 21:37 032 15 gusting 23 28.3
2016-Jul-21 20:37 025 10 gusting 21 27.8
2016-Jul-21 19:37 010 7 gusting 15 26.7
2016-Jul-21 18:37 234 6 gusting 9 23.9
2016-Jul-21 17:37 012 5 gusting 9 22.2
2016-Jul-21 16:37 182 5 gusting 8 18.3
2016-Jul-21 15:37 125 5 gusting 10 18.3
2016-Jul-21 14:37 115 5 gusting 11 18.9
2016-Jul-21 13:37 171 8 gusting 13 18.9